TimeCDT,TemperatureF,Dew PointF,Humidity,Sea Level PressureIn,VisibilityMPH,Wind Direction,Wind SpeedMPH,Gust SpeedMPH,PrecipitationIn,Events,Conditions,WindDirDegrees,DateUTC
12:15 AM,50.0,50.0,100,29.91,10.0,Calm,Calm,-,N/A,,Clear,0,2013-03-31 05:15:00
12:35 AM,50.0,50.0,100,29.91,10.0,East,4.6,-,N/A,,Clear,80,2013-03-31 05:35:00
12:55 AM,50.0,50.0,100,29.91,10.0,ENE,5.8,-,N/A,,Mostly Cloudy,60,2013-03-31 05:55:00
1:15 AM,51.8,50.0,94,29.90,10.0,East,4.6,-,N/A,,Scattered Clouds,90,2013-03-31 06:15:00
1:35 AM,50.0,48.2,94,29.90,10.0,East,4.6,-,N/A,,Scattered Clouds,100,2013-03-31 06:35:00
1:55 AM,50.0,50.0,100,29.91,10.0,ENE,5.8,-,N/A,,Mostly Cloudy,60,2013-03-31 06:55:00
2:15 AM,51.8,50.0,94,29.90,10.0,East,6.9,-,N/A,,Overcast,80,2013-03-31 07:15:00
2:35 AM,51.8,50.0,94,29.91,10.0,NE,4.6,-,N/A,,Overcast,50,2013-03-31 07:35:00
2:55 AM,51.8,50.0,94,29.91,10.0,ESE,4.6,-,N/A,,Overcast,110,2013-03-31 07:55:00
3:15 AM,50.0,48.2,94,29.90,10.0,Calm,Calm,-,N/A,,Mostly Cloudy,0,2013-03-31 08:15:00
3:35 AM,50.0,48.2,94,29.89,10.0,ESE,6.9,-,N/A,,Scattered Clouds,110,2013-03-31 08:35:00
3:55 AM,50.0,48.2,94,29.88,10.0,ESE,6.9,-,N/A,,Scattered Clouds,110,2013-03-31 08:55:00
4:15 AM,50.0,46.4,87,29.86,10.0,ESE,5.8,-,N/A,,Scattered Clouds,120,2013-03-31 09:15:00
4:35 AM,48.2,46.4,93,29.87,10.0,Calm,Calm,-,N/A,,Clear,0,2013-03-31 09:35:00
4:55 AM,46.4,46.4,100,29.89,10.0,Calm,Calm,-,N/A,,Scattered Clouds,0,2013-03-31 09:55:00
5:15 AM,48.2,48.2,100,29.92,10.0,WNW,6.9,-,N/A,,Overcast,290,2013-03-31 10:15:00
5:35 AM,50.0,48.2,94,29.95,10.0,NNW,18.4,35.7,0.01,Rain,Light Rain,340,2013-03-31 10:35:00
5:55 AM,50.0,46.4,87,29.95,10.0,North,17.3,25.3,0.01,Rain,Light Rain,350,2013-03-31 10:55:00
6:15 AM,50.0,46.4,87,29.99,10.0,NW,10.4,-,0.02,Rain,Rain,320,2013-03-31 11:15:00
6:35 AM,48.2,46.4,93,29.95,10.0,NNE,6.9,-,0.07,Rain,Light Rain,20,2013-03-31 11:35:00
6:55 AM,48.2,46.4,93,29.95,10.0,North,8.1,-,0.07,,Mostly Cloudy,10,2013-03-31 11:55:00
7:15 AM,48.2,46.4,93,29.95,10.0,NNE,6.9,-,N/A,,Overcast,20,2013-03-31 12:15:00
7:35 AM,48.2,46.4,93,29.97,10.0,North,3.5,-,N/A,,Overcast,350,2013-03-31 12:35:00
7:55 AM,48.2,46.4,93,29.97,10.0,Calm,Calm,-,N/A,,Mostly Cloudy,0,2013-03-31 12:55:00
8:15 AM,50.0,46.4,87,29.97,10.0,Calm,Calm,-,N/A,,Scattered Clouds,0,2013-03-31 13:15:00
8:35 AM,50.0,46.4,87,29.96,10.0,North,5.8,-,N/A,,Clear,350,2013-03-31 13:35:00
8:55 AM,50.0,48.2,94,29.97,10.0,NNE,4.6,-,N/A,,Clear,20,2013-03-31 13:55:00
9:15 AM,51.8,48.2,88,29.96,10.0,NNE,8.1,-,N/A,,Clear,20,2013-03-31 14:15:00
9:35 AM,53.6,46.4,77,29.95,10.0,NNE,6.9,-,N/A,,Clear,20,2013-03-31 14:35:00
9:55 AM,55.4,46.4,72,29.96,10.0,North,9.2,-,N/A,,Clear,350,2013-03-31 14:55:00
10:15 AM,55.4,46.4,72,29.96,10.0,NNW,10.4,-,N/A,,Clear,340,2013-03-31 15:15:00
10:35 AM,55.4,46.4,72,29.96,10.0,North,10.4,-,N/A,,Clear,350,2013-03-31 15:35:00
10:55 AM,55.4,46.4,72,29.97,10.0,NNW,9.2,-,N/A,,Clear,330,2013-03-31 15:55:00
11:15 AM,59.0,44.6,59,29.97,10.0,North,10.4,-,N/A,,Clear,350,2013-03-31 16:15:00
11:35 AM,59.0,44.6,59,29.97,10.0,North,9.2,-,N/A,,Clear,350,2013-03-31 16:35:00
11:55 AM,60.8,42.8,52,29.97,10.0,NNW,11.5,-,N/A,,Clear,340,2013-03-31 16:55:00
12:15 PM,60.8,42.8,52,29.97,10.0,NNW,12.7,-,N/A,,Clear,340,2013-03-31 17:15:00
12:35 PM,60.8,41.0,48,29.98,10.0,North,8.1,-,N/A,,Clear,350,2013-03-31 17:35:00
12:55 PM,60.8,41.0,48,29.98,10.0,NNW,11.5,-,N/A,,Clear,340,2013-03-31 17:55:00
1:15 PM,60.8,37.4,42,29.98,10.0,NNW,4.6,-,N/A,,Clear,330,2013-03-31 18:15:00
1:35 PM,62.6,42.8,48,29.97,10.0,NNW,8.1,-,N/A,,Clear,330,2013-03-31 18:35:00
1:55 PM,60.8,41.0,48,29.97,10.0,NW,6.9,-,N/A,,Clear,310,2013-03-31 18:55:00
2:15 PM,62.6,37.4,39,29.97,10.0,NW,4.6,-,N/A,,Clear,320,2013-03-31 19:15:00
2:35 PM,62.6,37.4,39,29.97,10.0,North,9.2,-,N/A,,Clear,350,2013-03-31 19:35:00
2:55 PM,62.6,35.6,37,29.97,10.0,NNW,10.4,-,N/A,,Clear,330,2013-03-31 19:55:00
3:15 PM,62.6,35.6,37,29.96,10.0,NNW,6.9,-,N/A,,Clear,340,2013-03-31 20:15:00
3:35 PM,64.4,39.2,40,29.96,10.0,NNW,9.2,-,N/A,,Clear,330,2013-03-31 20:35:00
3:55 PM,64.4,41.0,42,29.95,10.0,NNW,10.4,-,N/A,,Clear,340,2013-03-31 20:55:00
4:15 PM,64.4,41.0,42,29.95,10.0,NW,12.7,16.1,N/A,,Clear,320,2013-03-31 21:15:00
4:35 PM,64.4,41.0,42,29.94,10.0,NNW,9.2,16.1,N/A,,Clear,330,2013-03-31 21:35:00
4:55 PM,62.6,41.0,45,29.94,10.0,NW,9.2,-,N/A,,Clear,310,2013-03-31 21:55:00
5:15 PM,62.6,41.0,45,29.94,10.0,NNW,9.2,-,N/A,,Clear,330,2013-03-31 22:15:00
5:35 PM,62.6,41.0,45,29.94,10.0,NNW,8.1,-,N/A,,Clear,330,2013-03-31 22:35:00
5:55 PM,62.6,41.0,45,29.93,10.0,NNW,15.0,-,N/A,,Clear,330,2013-03-31 22:55:00
6:15 PM,62.6,41.0,45,29.93,10.0,NW,12.7,-,N/A,,Clear,320,2013-03-31 23:15:00
6:35 PM,62.6,41.0,45,29.93,10.0,NW,11.5,-,N/A,,Clear,320,2013-03-31 23:35:00
6:55 PM,60.8,41.0,48,29.93,10.0,NNW,6.9,-,N/A,,Clear,330,2013-03-31 23:55:00
7:15 PM,60.8,42.8,52,29.93,10.0,NW,4.6,-,N/A,,Clear,310,2013-04-01 00:15:00
7:35 PM,59.0,41.0,51,29.93,10.0,NW,4.6,-,N/A,,Clear,320,2013-04-01 00:35:00
7:55 PM,59.0,41.0,51,29.93,10.0,NW,4.6,-,N/A,,Clear,310,2013-04-01 00:55:00
8:15 PM,57.2,41.0,55,29.94,10.0,WNW,3.5,-,N/A,,Clear,290,2013-04-01 01:15:00
8:35 PM,57.2,39.2,51,29.95,10.0,Calm,Calm,-,N/A,,Clear,0,2013-04-01 01:35:00
9:15 PM,55.4,39.2,54,29.96,10.0,NW,3.5,-,N/A,,Clear,310,2013-04-01 02:15:00
9:35 PM,55.4,37.4,51,29.96,10.0,NW,3.5,-,N/A,,Clear,310,2013-04-01 02:35:00
9:55 PM,53.6,37.4,54,29.97,10.0,Calm,Calm,-,N/A,,Clear,0,2013-04-01 02:55:00
10:15 PM,51.8,39.2,62,29.97,10.0,Calm,Calm,-,N/A,,Clear,0,2013-04-01 03:15:00
10:35 PM,51.8,37.4,58,29.98,10.0,West,3.5,-,N/A,,Clear,280,2013-04-01 03:35:00
10:55 PM,53.6,37.4,54,29.98,10.0,Calm,Calm,-,N/A,,Clear,0,2013-04-01 03:55:00
11:15 PM,51.8,37.4,58,29.98,10.0,Calm,Calm,-,N/A,,Clear,0,2013-04-01 04:15:00
11:55 PM,50.0,37.4,62,29.97,10.0,Calm,Calm,-,N/A,,Clear,0,2013-04-01 04:55:00